Location: Northern Prairie Star Party
(53.2167°N, 112.5333°W)
Time: 07:32:40
(UTC-06:00)

MaSat-1 - Visible Passes

Search period start: 21 October 2014 00:00
Search period end: 31 October 2014 00:00
Orbit: 273 x 631 km, 69.4° (Epoch: 20 October)

Date Brightness Start Highest point End Pass type
(mag) Time Alt. Az. Time Alt. Az. Time Alt. Az.
27 Oct ? 07:15:01 10° N 07:16:13 12° NNE 07:17:22 10° ENE visible
29 Oct ? 07:29:34 10° NNW 07:31:56 25° NE 07:34:08 10° ESE visible
30 Oct ? 06:49:03 10° N 06:50:49 15° NE 06:52:29 10° ENE visible
